Timeline UpdatesTrip UpdatesNews PostsPvt Posts♥♥Travel TipsAdmin PostsConv PostsFollowed PostsChat RequestsBlog PostsPNR Posts

Disclaimer
Search
 
 
Sat Nov 22, 2014 21:04:24 ISTHomeTrainsΣChainsAtlasPNRForumGalleryNewsFAQTripsMembersLoginFeedback
No Recent News for this Train
Other Trains in the News **new
Latest...
Will be short originated from Faizabad from 27/11 to 04/12.
Mon Nov 25, 2013 (01:33PM)
⇐ Return Journey: Train# 54334

54333/Varanasi Lucknow Passenger (UnReserved)

Time-Table HAS CHANGED.
Sep 02 2014 (11:44PM)
Change Departure Station:
Change Arrival Station:
Post a Train Travel TipPost a Train Travel Tip **new
Post a Comment/Question/Picture/VideoPost a Comment/Question/Picture/Video
Pantry/Catering
???
RSA - Rake Sharing
Rake/Coach Composition
Loco
News    PNR    Forum    Time-Table    Availability    Fare Chart    Map    Arr/Dep History    Trips    Gallery    ΣChains    X/O    Timeline    
Travel Time: 7h 32m    35 halts    Distance: 248 km    Avg Speed: 32 km/hr
Type: Passenger
Zone: NR/Northern
Departs @ 04:05 (Avg 23m late)
Platform# 7
SMTWTFS
Varanasi Junction/BSB 
Arrives @ 11:37 (Avg 4h 44m late)
Platform# ???
SMTWTFS
Patranga/PTH 

35 halts. 36 intermediate Stations between Varanasi Junction and Patranga

Show ALL intermediate Stations  Show Old Time-Table

#TrkCodeStation NameX/OArrivesAvgDepartsAvgHaltPFDay#KmSpeedElevZoneAddress
1/==/BSBVaranasi Junction (9)»  -04:10 04:05+23710.03482mNRVaranasi 221002, Uttar Pradesh
2/==/SOPShivpur (3)  04:20 04:15+1:0204:21 04:16+1:021m--15.64881mNRVaranasi, Uttar Pradesh
3/==/BRPTBirapatti (2)X  04:29 04:24+2:0104:30 04:25+2:011m--112.05084mNRRd Varanasi Uttar Pradesh, Uttar Pradesh
4/==/BTPBabatpur (2)X  04:38 04:33+2:0104:39 04:34+2:101m--118.65484mNRSatomahua-Mangari Rd, Uttar Pradesh
5/==/PDRDPindra Road (2)X  04:45 04:40-04:46 04:41-1m--124.03981mNRSatomahua-Mangari Rd, Uttar Pradesh
6/==/KSFKhalispur (2)X  04:52 04:47+2:0904:53 04:48+2:131m--127.94483mNRPhulpur, Uttar Pradesh
7/==/TLMDTrilochan Mahdo (2)X  05:01 04:55+2:1305:02 04:56+2:131m--133.04683mNRNational Highway 56, Uttar Pradesh
8/==/JLLJalalGanj (2)  05:09 05:04+2:1205:10 05:05+2:201m--139.25187mNRJalalganj Railway Station, Uttar Pradesh
9/==/SIQSarkoni (2)X  05:17 05:12+2:2305:18 05:13+2:231m--145.13385mNRBandipur, Uttar Pradesh
10/==/ZBDZafarabad Junction (4)  05:29 05:24+2:2305:30 05:25+2:411m--151.22683mNRNational Highway 56, Uttar Pradesh
11|--|JNUJaunpur Junction (5)  05:39 05:40+2:2505:41+2:272 1m--157.73783mNRJaunpur, Uttar Pradesh
12|--|MGWNMahgawan Halt (1)  05:51+2:4005:52+2:461m1163.85184mNRDalhanpur, Uttar Pradesh
13|--|MIHMihrawan (1)  05:59+2:4706:00+3:021m1169.74988mNRChak Bhavani Shanker, Uttar Pradesh
14|--|MNKNManikalan Halt (1)X  06:07-06:08-1m1175.44285mNRNawab Yousuf Rd, Uttar Pradesh
15|--|KSKheta Sarai (1)  06:15+3:0306:16+3:361m1180.43088mNRKheta Sarai, Uttar Pradesh
16|--|SHGShahganj Junction (4)X  06:35 06:37+2:5806:43 06:39+3:108 2m1191.06090mNRShahganj, Uttar Pradesh
17|--|BWIBilwai (1)X  06:48 06:50+3:4406:49 06:51+3:481m11101.95591mNRBilwai, Uttar Pradesh
18|--|TLGRTulsi NagarX  06:57 06:58+2:4006:58 06:59+2:411m--1108.35191mNRNawab Yousuf Rd, Uttar Pradesh
19|--|MLPRMalipur (2)  07:07 07:08+2:4107:08 07:09+2:451m--1116.05992mNRMalipur, Uttar Pradesh
20|--|JFGJafarganj  07:18 07:19+2:5207:19 07:20+3:071m--1125.95092mNRNawab Yousuf Rd, Uttar Pradesh
21|--|ABPAkbarpur Junction (2)X  07:31+1:5207:33+1:522m--1135.15892mNRAkbarpur, Uttar Pradesh
22|--|KTHEKatahri  07:44 07:45+3:0907:45 07:46+3:131m--1146.76495mNRKatehri, Uttar Pradesh
23|--|GGJGoshainGanj (3)  07:55 07:56+2:4607:56 07:57+2:571m--1157.35698mNRGoshainganj, Uttar Pradesh
24|--|ULNUlna BhariX  08:05 08:06+3:3208:06 08:07+3:401m--1165.757104mNRNawab Yousuf Rd, Uttar Pradesh
25|--|BLGBilhar Ghat  08:15 08:16+3:4308:16 08:17+3:431m--1174.254104mNRNawab Yousuf Rd, Uttar Pradesh
26|--|DRGDarshannagar (2)  08:27 08:28+3:4308:28 08:29+3:461m--1184.127103mNRayodhya, Uttar Pradesh
27|--|AYAyodhya Junction (3)X  08:39 08:40+3:4508:40 08:41+4:121m--1189.01998mNRAyodhya, Uttar Pradesh
28|--|ACNDAcharya Narendra Dev Nagar  08:54 08:55+4:1008:55 08:56+4:381m--1193.52104mNRFaizabad, Uttar Pradesh
29|--|FDFaizabad Junction (5)X  10:00+2:5010:13+3:0413m--1195.743104mNRFaizabad, Uttar Pradesh
30|--|SLRPSalarpurX  10:24 10:25+4:3110:25 10:26+4:341m--1204.444106mNRJaganpur, Uttar Pradesh
31|--|SLWSohwalX  10:34 10:35+4:3610:35 10:36+4:411m--1211.051107mNRFaizabad Rd, Uttar Pradesh
32|--|DELODeorakot  10:44 10:45+4:4310:45 10:46+4:431m--1218.635110mNRDewracoat, Uttar Pradesh
33|--|BNMBaragaon  10:55 10:56+4:4410:56 10:57+4:471m--1224.643115mNRFaizabad Rd, Uttar Pradesh
34|--|GMUGauriyamau  11:02 11:03-11:03 11:04-1m--1228.833108mNRFaizabad Rd, Uttar Pradesh
35|--|RDLRudauli (2)  11:12 11:13+4:4511:13 11:14+4:451m--1233.833112mNRRudauli, Uttar Pradesh
36|--|RZNRauzagaon  11:23 11:24+4:4511:24 11:25+4:451m--1239.445111mNRFaizabad Rd, Uttar Pradesh
37|--|PTHPatranga•  11:36 11:37+4:4411:37 11:38+4:451m--1248.437113mNRFaizabad Rd, Uttar Pradesh
38|--|DYDDaryabad  11:51 11:52+4:4311:52 11:53+4:431m--1257.039116mNRFaizabad Rd, Uttar Pradesh
39|--|SYKSaidkhanpur  12:07 12:08+4:3912:08 12:09+4:431m--1266.738116mNRSaidkhanpur, Uttar Pradesh
40|--|SGJSafdarGanj  12:24 12:25+4:3812:25 12:26+4:511m--1276.847116mNRFaizabad Rd, Uttar Pradesh
41|--|RESRasauliXO  12:39 12:40+4:4812:40 12:41+3:521m--1287.73125mNRFaizabad Rd, Uttar Pradesh
42|--|BBKBarabanki Junction (4)X  15:09 15:05+1:3215:10+1:361 5m--1295.030 NRPin-225001, Uttar Pradesh
43/==/SFHSafedabad (3)  15:25+3:3115:26+1:511m--1302.629121mNRBarabanki, Uttar Pradesh
44/==/JRRJugaur (1)X  15:33-15:34-1m11306.037123mNRCanal Rd, Uttar Pradesh
45/--/MLMalhaur (3)  15:44 15:43+1:3515:45+1:471 2m--1311.424120mNRLucknow, Uttar Pradesh
46/==/LKOLucknow Charbagh NR (9)  16:15+1:24-41323.4- NR226004, Uttar Pradesh
Scroll to Top
Scroll to Bottom